Location: Newark
(34.1333°N, 7.9667°W)
Time: 22:21:03
(UTC+00:00)

ITAMSAT 1 - Pass Details

Date: 22 April 2024
Orbit: 781 x 796 km, 98.8° (Epoch: 28 May)

Event Time Altitude Azimuth Distance (km) Brightness Sun altitude
Exits shadow 20:37:51 30° 129° (SE) 1,380 8.3 -17.7°
Maximum altitude 20:40:03 49° 73° (ENE) 1,014 7.9 -18.1°
Drops below altitude 10° 20:45:05 10° 359° (N) 2,371 10.5 -19.0°
Sets 20:47:28 0° 354° (N) 3,303 11.4 -19.5°
